Location: Vanderbilt Planetarium & Observatory
(40.9052°N, 73.3671°W)
Time: 02:59:38
(UTC-04:00)

Daily predictions for brighter satellites

Satellite Brightness Start Highest point End
(mag) Time Altitude Azimuth Time Altitude Azimuth Time Altitude Azimuth
SL-16 R/B 4.4 02:56:27 23° N 02:56:27 23° N 02:58:50 10° N
SL-16 R/B 4.5 02:54:49 10° N 02:58:55 20° NE 03:02:59 10° E
Cosmos 2227 Rocket 4.2 03:11:34 25° NE 03:11:34 25° NE 03:13:58 10° NE
ATLAS 2AS CENTAUR R/B 4.4 03:15:25 27° NNW 03:15:25 27° NNW 03:21:00 10° NNE
Cosmos 2297 Rocket 4.0 03:19:28 28° ENE 03:19:28 28° ENE 03:22:26 10° NE
Cosmos 2344 3.8 03:27:45 65° N 03:27:45 65° N 03:35:20 10° NNE
Lacrosse 5 4.0 03:33:01 23° NE 03:33:01 23° NE 03:34:55 10° NE
BREEZE-M DEB (TANK) 4.1 03:37:52 66° NE 03:37:52 66° NE 03:50:41 10° ESE
USA 215 3.1 03:54:57 10° SE 04:01:22 86° E 04:01:22 86° E
Cosmos 1727 Rocket 4.1 04:04:16 70° N 04:04:16 70° N 04:09:50 10° N
CENTAUR R/B 3.8 03:57:04 10° NNW 04:04:36 51° NE 04:12:39 10° ESE
Cosmos 2058 Rocket 4.5 04:05:20 10° N 04:09:10 36° ENE 04:09:10 36° ENE
Tiangong 1 4.4 04:20:54 12° E 04:20:54 12° E 04:21:14 10° E
CZ-2C R/B 4.4 04:18:10 51° E 04:18:40 53° ENE 04:23:13 10° N
CZ-4B R/B 3.8 04:18:28 10° NNE 04:23:48 53° E 04:26:34 28° SSE
CZ-2D R/B 3.5 04:20:38 10° N 04:23:15 27° NNW 04:23:15 27° NNW
Cosmos 1898 Rocket 3.5 04:29:39 75° SSE 04:30:01 80° ESE 04:35:19 10° NNE
IRS-1C Rocket 4.1 04:26:00 10° NNE 04:31:19 78° ESE 04:32:18 59° S
NOSS 2-2 (C) 4.5 04:32:07 40° SE 04:32:27 41° ESE 04:36:46 10° NE
NOSS 2-2 (E) 4.2 04:33:01 47° SE 04:33:15 48° ESE 04:37:46 10° NE
Cosmos 1153 Rocket 4.4 04:27:59 10° NNW 04:34:15 63° W 04:34:26 62° WSW
Cosmos 858 Rocket 4.5 04:35:39 65° S 04:36:26 81° ESE 04:41:45 10° NNE
Resurs 1-4 Rocket 3.5 04:32:44 10° N 04:35:23 24° NNW 04:35:23 24° NNW
Cosmos 1937 Rocket 3.7 04:36:06 44° S 04:37:41 67° ESE 04:42:56 10° NNE
Lacrosse 5 rocket 4.1 04:37:13 11° NNW 04:37:47 11° N 04:38:55 10° N
Cosmos 724 4.3 04:36:28 44° NW 04:38:30 70° WSW 04:44:39 10° SSE
Meteor 2-4 Rocket 3.7 04:38:08 62° SW 04:39:03 75° W 04:45:02 10° N
Meteor 1-19 Rocket 4.5 04:40:30 49° NW 04:40:30 49° NW 04:45:14 10° N
SL-16 R/B 2.0 04:37:55 10° NNW 04:43:34 67° WSW 04:49:10 10° S
Cosmos 2098 Rocket 4.1 04:39:58 10° N 04:44:09 52° E 04:49:26 10° SSE
NOSS 3-4 (A) 4.4 04:43:54 32° NW 04:44:25 32° NW 04:50:17 10° NNE
NOSS 3-4 (C) 4.4 04:43:59 32° NW 04:44:31 33° NW 04:50:24 10° NNE
Meteor 2-9 Rocket 4.1 04:40:41 10° NNW 04:46:23 75° W 04:52:10 10° S
DELTA 2 R/B (1) 3.4 04:46:14 63° SW 04:47:03 76° S 04:52:37 10° E
Okean O Rocket 1.7 04:46:30 10° N 04:50:22 59° NW 04:50:22 59° NW
Cosmos 2227 Rocket 3.4 04:53:25 26° NW 04:53:25 26° NW 04:57:32 10° N
BREEZE-M DEB (TANK) 2.9 04:53:01 65° NNW 04:53:01 65° NNW 04:55:34 10° NE
Meteor 1-23 Rocket 4.2 04:52:38 50° SW 04:53:50 61° WNW 04:59:30 10° N
Cosmos 1602 Rocket 4.3 04:53:01 10° S 04:57:19 53° E 05:01:37 10° NNE
PSLV R/B 3.9 04:56:28 10° NNE 05:00:46 63° E 05:04:40 12° S
Cosmos 1892 Rocket 4.1 05:01:48 42° NW 05:01:48 42° NW 05:05:27 10° N
Cosmos 2297 Rocket 3.1 05:01:19 30° NW 05:01:19 30° NW 05:06:16 10° N
CZ-4B R/B 3.1 04:59:12 10° N 05:03:38 64° WNW 05:04:41 48° SW
Cosmos 2228 2.9 04:59:30 10° N 05:03:55 77° W 05:08:14 10° S
Cosmos 192 4.3 05:02:08 10° NNW 05:07:07 88° ENE 05:12:02 10° SSE
Lacrosse 5 3.5 05:12:13 18° NW 05:13:34 20° NNW 05:17:19 10° NNE
Cosmos 2100 Rocket 4.2 05:08:41 10° NNW 05:14:39 48° W 05:20:38 10° SSW
Okean 2 4.5 05:16:05 28° NW 05:16:05 28° NW 05:18:52 10° NNW
Cosmos 1802 Rocket 4.0 05:13:57 10° NNW 05:19:55 54° W 05:25:51 10° SSW
COBE Rocket 4.5 05:17:17 10° NNE 05:21:57 55° E 05:26:30 10° S
USA 129 4.4 05:21:11 10° ESE 05:22:26 17° ENE 05:23:08 14° NE
Cosmos 1812 Rocket 3.9 05:18:29 10° N 05:22:57 71° E 05:27:24 10° SSE
Cosmos 1943 4.4 05:18:08 10° NNW 05:23:30 44° ENE 05:28:51 10° SE
Cosmos 2061 Rocket 4.3 05:17:44 10° NNW 05:23:41 45° W 05:29:42 10° SSW
Cosmos 1725 Rocket 4.0 05:18:24 10° N 05:24:44 89° W 05:30:58 10° S
ADEOS II 2.0 05:22:21 10° N 05:27:38 81° WNW 05:32:53 10° SSW
OAO 2 Rocket 4.1 05:26:15 24° SW 05:28:57 43° S 05:33:58 10° ESE
Cosmos 1603 3.6 05:25:46 10° NNW 05:31:29 73° WSW 05:37:07 10° SSE
Cosmos 2263 Rocket 3.7 05:27:31 10° S 05:32:34 36° ESE 05:37:36 10° NE
Cosmos 990 Rocket 4.2 05:30:49 17° SW 05:34:38 51° WNW 05:39:46 10° N
AVUM R/B 3.4 05:36:33 10° NNW 05:38:51 45° ENE 05:41:00 10° SE
Genesis I 3.7 05:40:15 24° WSW 05:42:11 41° NW 05:46:00 10° NNE
ADEOS Rocket 3.4 05:36:10 10° N 05:42:52 49° WNW 05:48:53 10° SW
Cosmos 2016 Rocket 4.3 05:38:36 10° NNW 05:44:29 42° W 05:50:15 10° SSW
USA 215 4.2 05:39:53 10° S 05:44:59 24° WSW 05:48:46 15° W
Ariane Rocket 4.4 05:41:16 10° NNE 05:46:06 42° E 05:50:55 10° S
USA 116 4.3 05:41:52 10° S 05:46:43 52° W 05:51:05 10° NNW
Cosmos 1269 Rocket 4.1 05:46:29 10° NNW 05:51:48 83° ENE 05:57:05 10° SSE
Thor Agena Rocket 4.2 05:48:47 10° SSW 05:53:30 33° W 05:58:16 10° NNW
EXPRESS MD2 4.2 05:51:20 18° W 05:53:49 43° SSW 06:00:12 10° SE
Cosmos 1174 4.3 05:52:40 18° WNW 05:54:09 26° WSW 05:57:05 10° S
Cosmos 1766 4.2 05:50:43 10° N 05:54:40 54° E 05:58:34 10° SSE
Cosmos 1515 4.4 05:51:15 10° SW 05:54:43 33° WNW 05:58:12 10° NNW
Tiangong 1 0.9 05:52:47 20° W 05:54:43 74° SSW 05:57:44 10° ESE
CENTAUR R/B 3.4 05:47:58 10° NW 05:55:21 43° WSW 06:03:05 10° S
COSMO-SKYMED 1 3.2 05:52:16 10° SSE 05:56:32 60° ENE 06:00:50 10° N
Cosmos 1825 Rocket 3.7 05:52:23 10° S 05:56:46 79° E 06:01:09 10° N
Meteor 1-31 Rocket 2.8 05:55:20 10° N 05:59:13 61° WNW 06:03:05 10° SSW
Cosmos 1340 2.7 05:57:46 10° SSW 06:01:29 55° W 06:05:15 10° N
FALCON 9 R/B 4.4 05:54:19 11° WSW 06:01:30 61° SSE 06:31:36 10° E
Okean-O 3.2 05:57:29 10° N 06:01:32 36° WNW 06:05:34 10° SW
Cosmos 372 Rocket 4.3 05:56:53 10° S 06:01:56 70° ESE 06:07:04 10° NNE
CZ-4B R/B 4.4 05:59:56 10° NNW 06:03:58 22° WNW 06:08:04 10° WSW
Cosmos 2123 Rocket 4.4 05:59:36 10° SW 06:05:21 40° WNW 06:11:09 10° N
CZ-3A R/B 4.2 06:03:29 10° SW 06:05:33 11° SSW 06:07:02 10° S
Cosmos 1125 Rocket 3.7 06:13:36 10° SW 06:18:39 52° WNW 06:23:45 10° N
Lacrosse 5 rocket 4.1 06:17:18 10° N 06:18:54 12° NNE 06:20:29 10° NE
Radarsat Rocket 4.1 06:14:49 10° NNE 06:21:26 78° WNW 06:27:22 10° SSW
